Flag for U.S.A. Weather past 2 weeks in Atlanta, Georgia, U.S.A.

Now
68 °F

Passing clouds.


Feels Like: 68 °F
Forecast: 64 / 78 °F
Wind: 8 mph from Northeast

Location: Fulton County Airport-Brown Field

Current Time: Sep 20, 2014 at 4:20:59 AM

Latest Report: Sep 20, 2014 at 3:53 AM


Visibility: 10 mi

Pressure: 30.09 "Hg

Humidity: 82%

Dew point: 62 °F

Location of AtlantaLocation

Historic Weather in Atlanta — Graph

°F

Atlanta temperature yesterday

Maximum temperature yesterday: 83 °F (at 3:53 PM)
Minimum temperature yesterday: 66 °F (at 3:53 AM)
Average temperature yesterday: 74 °F

Past Weeks' High & Low Weather Summary

 TemperatureHumidityPressure
High90 °F (Sep 6, 2:53 PM)97% (Sep 12, 9:53 PM)30.22 "Hg (Sep 12, 9:53 PM)
Low59 °F (Sep 18, 6:53 AM)43% (Sep 17, 4:53 PM)29.87 "Hg (Sep 17, 5:53 PM)
Average76 °F78%30.04 "Hg
* Reported Sep 5 2:53 AM — Sep 20 2:53 AM, Atlanta, Weather by CustomWeather, © 2014

Note: Actual official high and low records may vary slightly from our data, if they occured in-between our weather recording intervals... More about our weather records

Advertising

Atlanta weather history for previous 24 hours

 ConditionsComfort  
Time TempWeatherWind HumidityBarometerVisibility
2:53 AM
Sep 20
68 °FPassing clouds.7 mph84%30.11 "Hg10 mi
1:53 AM71 °FPassing clouds.7 mph76%30.11 "Hg10 mi
12:53 AM72 °FPassing clouds.8 mph76%30.11 "Hg10 mi
11:53 PM
Sep 19
72 °FPassing clouds.7 mph78%30.11 "Hg10 mi
10:53 PM73 °FClear.9 mph76%30.10 "Hg10 mi
9:53 PM72 °FClear.6 mph73%30.09 "Hg10 mi
8:53 PM76 °FClear.7 mph64%30.07 "Hg10 mi
7:53 PM78 °FSunny.8 mph60%30.06 "Hg10 mi
6:53 PM81 °FPassing clouds.6 mph53%30.03 "Hg10 mi
5:53 PM82 °FSunny.5 mph51%30.03 "Hg10 mi
4:53 PM83 °FSunny.7 mph50%30.02 "Hg10 mi
3:53 PM83 °FPartly sunny.12 mph51%30.02 "Hg10 mi
2:53 PM82 °FPassing clouds.12 mph55%30.03 "Hg10 mi
1:53 PM80 °FScattered clouds.14 mph58%30.06 "Hg10 mi
12:53 PM80 °FCloudy.8 mph58%30.06 "Hg10 mi
11:53 AM80 °FScattered clouds.8 mph60%30.07 "Hg10 mi
10:53 AM78 °FSunny.9 mph66%30.07 "Hg10 mi
9:53 AM74 °FPassing clouds.7 mph76%30.06 "Hg10 mi
8:53 AM71 °FScattered clouds.6 mph84%30.05 "Hg10 mi
7:53 AM66 °FClear.No wind93%30.03 "Hg8 mi
6:53 AM67 °FClear.No wind90%30.01 "Hg10 mi
5:53 AM66 °FClear.No wind93%30.00 "Hg10 mi
4:53 AM67 °FClear.No wind93%29.99 "Hg10 mi
Weather by CustomWeather, © 2014

See weather overviewHow to use our weather pages